Weather History for KINK - November, 2011

Change the Weather History Date:

Thursday, November 3, 2011

  Actual Average Record
Temperature  
Mean Temperature 42 °F -  
Max Temperature 57 °F 70 °F 91 °F (2003)
Min Temperature 26 °F 39 °F 21 °F (1951)
Degree Days  
Heating Degree Days 24    
Moisture  
Dew Point 19 °F    
Average Humidity 43    
Maximum Humidity 75    
Minimum Humidity 19    
Precipitation  
Precipitation 0.00 in - - ()
Sea Level Pressure  
Sea Level Pressure 30.37 in    
Wind  
Wind Speed 5 mph (NE)    
Max Wind Speed 9 mph    
Max Gust Speed -    
Visibility 10 miles    
Events      
Averages and records for this station are not official NWS values.
T = Trace of Precipitation, MM = Missing Value Source: NWS Daily Summary

Daily Weather History Graph

Daily Weather History Graph

Search for Another Location

Airport or City:

Trip Planner

Search our weather history database for the weather conditions in past years. The results will help you decide how hot, cold, wet, or windy it might be!

Date:

Astronomy

Nov. 03, 2011 Rise Set
Actual Time 8:10 AM CDT 7:01 PM CDT
Civil Twilight 7:45 AM CDT 7:26 PM CDT
Nautical Twilight 7:16 AM CDT 7:55 PM CDT
Astronomical Twilight 6:47 AM CDT 8:24 PM CDT
Moon 3:04 PM CDT (11/3) 1:49 AM CDT (11/3)
Length of Visible Light 11h 41m
Length of Day
10h 51m
First Quarter, 60% of the Moon is Illuminated
Nov 3
First Quarter
Nov 10
Full
Nov 18
Last Quarter
Nov 25
New
Dec 2
First Quarter

Hourly Weather History & Observations

Time (CDT) Temp. Windchill Dew Point Humidity Pressure Visibility Wind Dir Wind Speed Gust Speed Precip Events Conditions
12:53 AM 37.9 °F 33.5 °F 24.1 °F 57% 30.43 in 10.0 mi North 5.8 mph - N/A   Clear
1:53 AM 36.0 °F 31.1 °F 23.0 °F 59% 30.45 in 10.0 mi NNW 5.8 mph - N/A   Clear
2:53 AM 34.0 °F 28.0 °F 23.0 °F 64% 30.45 in 10.0 mi NNW 6.9 mph - N/A   Clear
3:53 AM 32.0 °F 25.6 °F 21.9 °F 66% 30.45 in 10.0 mi NNW 6.9 mph - N/A   Clear
5:53 AM 28.9 °F 22.8 °F 19.9 °F 69% 30.47 in 10.0 mi NNW 5.8 mph - N/A   Clear
6:53 AM 26.1 °F 19.4 °F 19.0 °F 75% 30.48 in 10.0 mi NNW 5.8 mph - N/A   Clear
7:53 AM 26.1 °F - 19.0 °F 75% 30.49 in 10.0 mi Calm Calm - N/A   Clear
8:53 AM 30.0 °F 26.5 °F 21.0 °F 69% 30.51 in 10.0 mi NNW 3.5 mph - N/A   Clear
9:53 AM 39.0 °F 36.8 °F 24.1 °F 55% 30.51 in 10.0 mi NNE 3.5 mph - N/A   Clear
10:53 AM 44.1 °F 42.5 °F 25.0 °F 47% 30.48 in 10.0 mi North 3.5 mph - N/A   Clear
11:53 AM 46.9 °F - 21.0 °F 36% 30.46 in 10.0 mi Variable 3.5 mph - N/A   Clear
12:53 PM 48.9 °F - 19.0 °F 31% 30.43 in 10.0 mi ENE 3.5 mph - N/A   Clear
1:53 PM 51.1 °F - 19.0 °F 28% 30.39 in 10.0 mi South 3.5 mph - N/A   Clear
2:53 PM 54.0 °F - 17.1 °F 23% 30.34 in 10.0 mi Variable 3.5 mph - N/A   Clear
3:53 PM 55.0 °F - 16.0 °F 22% 30.30 in 10.0 mi Calm Calm - N/A   Clear
4:53 PM 57.0 °F - 15.1 °F 19% 30.27 in 10.0 mi Variable 4.6 mph - N/A   Clear
5:53 PM 55.9 °F - 15.1 °F 20% 30.25 in 10.0 mi ESE 9.2 mph - N/A   Clear
6:53 PM 54.0 °F - 16.0 °F 22% 30.25 in 10.0 mi SSE 5.8 mph - N/A   Clear
7:53 PM 48.0 °F - 15.1 °F 27% 30.26 in 10.0 mi SE 6.9 mph - N/A   Clear
8:53 PM 46.0 °F 42.5 °F 14.0 °F 28% 30.25 in 10.0 mi SE 6.9 mph - N/A   Clear
9:53 PM 45.0 °F 41.8 °F 14.0 °F 29% 30.23 in 10.0 mi SE 5.8 mph - N/A   Clear
10:53 PM 43.0 °F 41.3 °F 14.0 °F 31% 30.23 in 10.0 mi East 3.5 mph - N/A   Clear
11:53 PM 41.0 °F 39.0 °F 12.2 °F 31% 30.23 in 10.0 mi East 3.5 mph - N/A   Clear